Simultaneous Nadir Overpasses (SNOs) Predictions

Prediction of SNOs between AQUA and NPP Satellite Orbit:

Table of predicted SNOs for the next 14.0 days since TLE Epoch: 8/23/2019
Index Date (AQUA) Time (AQUA) Lat,Lon (AQUA) SZA (AQUA ) Date (NPP) Time (NPP) Lat,Lon (NPP) SZA (NPP ) Distance(km) Time Diff (sec)
1 08/23/2019 21:48:45 75.26, 89.71 87.14 08/23/2019 21:48:23 75.27, 89.76 87.14 1.72 22
2 08/23/2019 22:37:52 -76.24, -99.74 93.99 08/23/2019 22:38:48 -76.24, -99.75 94.03 0.27 56
3 08/26/2019 13:16:11 -74.09, 35.04 90.72 08/26/2019 13:14:59 -74.09, 35.01 90.65 0.74 72
4 08/26/2019 14:05:08 75.56,-153.57 87.66 08/26/2019 14:05:12 75.57,-153.54 87.64 0.79 4
5 08/29/2019 05:32:32 -74.51, 151.89 90.30 08/29/2019 05:31:46 -74.50, 151.84 90.24 1.61 46
6 08/29/2019 06:21:30 75.91, -36.67 88.14 08/29/2019 06:22:00 75.91, -36.66 88.11 0.26 30
7 08/31/2019 21:48:53 -74.91, -91.22 89.85 08/31/2019 21:48:33 -74.90, -91.29 89.82 2.12 20
8 08/31/2019 22:37:52 76.24, 80.26 88.65 08/31/2019 22:38:48 76.24, 80.27 88.60 0.21 56
9 09/03/2019 13:16:08 74.17,-144.78 91.86 09/03/2019 13:14:56 74.18,-144.77 91.92 0.62 72
10 09/03/2019 14:05:12 -75.36, 25.85 89.45 09/03/2019 14:05:18 -75.35, 25.78 89.43 2.27 6
11 09/06/2019 05:32:27 74.67, -27.71 92.23 09/06/2019 05:31:41 74.68, -27.68 92.26 0.77 46




NCC Satellite Simultaneous Nadir Overpasses (SNOs) Prediction Service
